{"data":{"norad_id":59954,"intl_designator":"2024-107K","name":"STARLINK-11133 [DTC]","alt_names":[],"object_type":"PAYLOAD","status":"ACTIVE","operator":null,"country":"US","launch_date":"2024-06-05","launch_site_code":"AFETR","launch_vehicle":null,"mission":null,"orbit_class":"UNKNOWN","rcs_meters":null,"size_class":null,"mass_kg":null,"dimensions":null,"purposes":["comms"],"wikipedia_slug":null,"has_3d_model":false,"image_url":null,"decayed_at":null,"tle_current":{"epoch":"2026-05-24T16:24:45.571392Z","epoch_age_seconds":98566,"freshness":"FRESH","line1":"1 59954U 24107K   26144.68386078  .00001420  00000+0  16580-4 0  9999","line2":"2 59954  53.1576 236.4947 0001085  77.7020 282.4120 15.69708254114083","mean_motion":15.69708254,"eccentricity":0.0001085,"inclination_deg":53.1576,"raan_deg":236.4947,"arg_perigee_deg":77.702,"mean_anomaly_deg":282.412,"bstar":1.658e-5,"rev_number":11408,"period_min":91.736792256174,"perigee_km":359.00068804905,"apogee_km":360.46280556711,"semimajor_km":6737.8687468081,"source":"CELESTRAK","updated_at":"2026-05-25T13:38:19.128373Z"}}}